Theta_e
335 334 334 334 334 335 334 330 329 328 329 329 328 328 329 331 333 333 333 334 334 332 331 331 331 331 331 329 327 324 323 322 322 322 320 319 317 317 317 315 313 312
334 334 333 333 333 334 333 331 329 329 329 329 329 330 331 332 334 334 333 333 334 333 332 332 331 331 329 326 325 323 321 322 321 322 318 317 316 316 315 314 313 312
333 333 333 333 333 333 332 331 330 329 329 329 330 330 331 333 334 335 333 333 334 333 333 331 329 328 327 325 324 323 321 321 320 319 318 316 315 315 314 313 312 311
333 333 334 333 333 333 331 330 328 329 329 328 329 329 331 334 334 334 332 336 334 333 332 329 327 326 326 324 323 322 321 320 320 319 317 317 317 315 314 314 313 312
332 333 333 333 332 332 331 330 328 328 327 328 329 329 331 334 334 333 332 333 333 331 329 327 325 325 325 323 322 321 321 320 319 318 317 316 316 316 315 315 313 312
333 333 333 333 331 331 331 330 329 328 328 327 328 330 332 334 333 332 332 332 330 329 328 326 324 324 323 322 322 321 320 319 318 318 317 315 314 315 317 314 312 311
332 332 331 331 330 331 331 330 330 329 328 328 328 329 333 334 332 331 331 331 329 328 327 324 323 323 323 322 321 320 319 319 318 317 316 315 316 314 314 313 312 310
332 331 330 330 330 330 330 330 329 328 328 327 327 330 333 334 333 331 330 328 327 327 326 325 324 322 322 322 320 319 318 319 318 317 317 316 315 314 312 313 311 309
331 330 330 329 329 329 329 328 327 327 328 328 328 330 332 334 333 331 328 328 327 326 326 325 325 324 323 322 320 319 319 319 318 317 316 315 313 312 312 311 311 310
331 330 329 329 328 328 328 327 327 327 328 328 328 330 332 332 331 329 329 328 327 325 325 324 323 323 322 321 320 319 319 318 317 316 316 314 313 312 311 310 309 307
331 331 329 328 328 328 327 326 326 327 328 329 329 330 331 330 328 328 328 327 325 324 324 323 322 322 321 321 320 319 318 317 317 316 315 314 313 311 313 306 306 305
332 332 330 329 328 328 327 327 326 327 328 330 331 330 330 329 327 328 328 326 325 325 324 323 322 322 321 320 319 318 318 317 317 316 314 311 308 306 305 305 304 304
332 332 332 329 328 328 328 327 327 327 328 329 329 329 329 327 328 327 326 325 324 324 323 322 321 321 320 319 318 317 317 316 314 312 308 306 304 303 303 303 303 303
332 333 331 329 329 329 329 328 328 327 329 328 328 328 327 326 327 326 326 326 325 324 323 322 321 320 319 319 317 317 316 314 312 307 305 303 302 301 301 300 301 300
333 332 331 329 329 330 329 329 329 328 328 328 327 326 326 326 326 327 326 325 324 323 322 322 320 319 319 318 317 316 315 312 308 305 303 301 299 298 298 299 299 300
332 331 329 329 329 329 329 329 329 328 328 327 327 326 325 326 327 326 325 323 322 322 322 321 320 319 318 313 314 315 314 311 307 304 302 300 298 297 298 300 302 304
331 330 329 328 329 330 329 329 328 328 327 325 326 325 325 325 325 324 323 323 322 321 320 320 320 320 308 303 304 308 313 309 305 303 301 299 297 297 298 302 302 303
330 329 328 328 329 329 328 328 328 327 326 325 325 324 324 324 324 323 322 321 321 320 319 319 318 312 301 301 302 303 309 309 305 303 301 299 298 299 300 301 301 301
330 329 328 328 328 328 327 327 327 326 326 324 324 324 323 322 323 322 321 319 319 319 318 317 317 304 300 300 301 301 303 307 306 304 301 300 300 300 301 301 301 301
329 328 327 327 327 327 326 326 326 325 325 325 325 324 322 321 322 322 320 318 318 318 316 316 315 303 299 300 300 300 301 304 308 305 303 301 300 301 301 301 301 301
328 327 327 327 326 326 325 325 325 325 325 324 324 324 323 322 321 320 319 318 317 316 315 314 312 299 298 299 299 299 300 305 309 307 304 302 301 301 302 302 302 302
327 326 326 326 326 325 324 324 324 324 324 323 323 323 323 322 319 319 317 316 315 314 312 311 308 296 297 298 298 299 301 312 310 308 305 303 303 303 303 303 303 303
327 326 325 325 325 324 323 323 323 323 323 323 322 321 321 321 320 318 316 314 312 312 311 309 305 298 296 297 298 298 304 311 310 308 307 305 304 304 305 305 305 304
328 327 326 325 324 323 322 322 323 323 322 322 322 320 320 319 318 316 315 313 311 310 310 308 305 300 295 297 298 300 307 311 309 308 307 306 305 305 305 304 304 308
328 327 326 325 324 323 322 322 322 322 321 322 322 321 319 318 316 315 314 312 311 310 310 308 306 302 296 296 298 300 307 310 308 306 305 304 304 302 302 302 303 305
328 326 326 325 324 322 323 322 321 320 320 321 320 320 318 317 315 315 314 312 311 310 310 309 308 305 301 295 298 299 302 309 307 305 303 301 302 301 300 298 298 298
Wind_Speed
10 9 9 9 8 7 9 9 8 9 9 9 9 9 10 9 8 9 8 8 7 7 6 6 5 5 5 5 5 6 6 6 5 6 7 7 6 7 7 6 5 6
10 10 8 7 6 6 8 10 10 10 10 10 9 9 7 7 9 9 9 9 8 8 7 7 7 7 7 6 7 7 6 6 6 5 7 7 6 7 7 6 6 4
10 9 9 9 8 9 10 9 10 10 9 10 9 7 7 7 8 8 8 9 9 8 8 7 7 7 8 7 7 7 7 6 7 6 7 7 6 7 6 5 4 4
10 10 10 8 8 9 9 9 8 8 7 7 9 8 7 7 7 8 8 9 8 8 8 8 8 8 8 8 7 6 7 6 6 7 7 5 6 7 5 4 4 4
9 9 8 7 8 9 10 10 11 10 10 11 8 7 6 7 8 8 8 9 8 8 8 8 8 9 9 8 8 7 6 7 6 7 7 6 5 6 4 5 4 4
8 8 7 8 8 10 9 10 11 10 9 8 10 8 8 9 9 9 9 9 7 8 8 8 8 9 9 8 8 7 7 7 6 7 7 6 4 4 4 4 4 4
8 7 8 8 9 10 10 10 9 8 9 8 7 9 9 9 10 9 7 7 9 9 9 8 8 8 7 8 8 7 7 7 7 7 8 5 5 3 3 4 4 4
8 7 8 8 9 9 9 9 8 7 6 6 8 9 10 10 10 7 4 4 4 6 6 3 1 4 6 8 8 8 7 6 7 8 7 6 5 5 4 5 5 5
8 8 8 9 9 8 8 8 6 5 6 8 8 8 8 8 8 8 8 8 7 8 8 6 5 4 4 3 6 8 8 6 7 7 7 7 6 5 5 5 5 5
9 8 9 9 9 8 8 6 6 6 6 7 7 7 8 6 3 5 7 5 8 9 9 7 7 8 8 6 6 7 7 7 7 6 6 6 6 6 5 4 5 5
10 10 10 9 9 7 7 7 6 6 6 7 7 7 5 4 5 7 9 6 9 10 10 9 9 8 8 7 6 6 6 7 7 6 6 6 5 5 5 5 5 5
10 10 11 10 8 8 8 8 7 7 6 5 6 5 5 5 7 8 11 11 11 11 11 9 8 7 8 8 7 7 7 7 6 6 6 7 6 6 6 5 6 6
10 10 10 9 8 8 8 7 8 7 7 6 6 6 5 6 7 6 6 5 4 5 9 10 8 8 7 5 6 7 8 8 7 8 8 7 6 6 5 5 5 5
9 9 9 8 8 8 8 7 7 7 7 6 5 7 6 6 7 7 5 6 7 7 4 5 8 8 7 6 3 5 7 8 9 9 9 7 6 5 4 5 5 4
8 8 8 9 9 9 8 8 7 7 7 7 6 6 6 5 5 8 8 7 7 7 7 5 6 8 6 5 6 6 7 9 10 10 10 9 7 5 4 4 4 4
9 8 8 9 9 9 9 8 7 7 7 6 6 6 6 6 6 6 8 9 9 8 7 6 5 6 9 9 6 7 8 8 9 9 10 9 8 7 4 4 4 4
10 9 9 10 9 9 8 8 8 7 7 7 7 7 8 6 6 6 6 8 9 9 9 7 6 7 12 11 11 12 10 10 10 9 9 9 8 8 7 6 4 4
9 9 10 9 9 9 9 8 7 7 7 7 7 7 6 7 7 6 6 6 7 8 10 9 7 10 15 14 14 14 13 10 9 9 8 8 8 8 7 7 6 4
9 9 9 8 8 8 8 7 7 7 7 8 8 7 6 7 6 6 6 5 6 8 7 7 6 11 14 14 15 15 16 13 9 9 9 8 8 8 8 7 6 6
9 9 8 7 7 7 8 7 7 7 7 6 7 7 7 6 6 7 6 6 7 7 6 5 5 8 13 13 14 15 16 13 9 9 9 9 9 9 8 8 8 7
8 8 8 7 7 8 7 7 7 7 7 6 7 7 8 8 7 7 7 7 6 6 7 6 5 10 13 14 14 16 16 12 9 8 7 7 8 8 9 9 8 7
9 8 8 7 7 8 8 7 7 7 7 6 6 5 5 5 5 5 7 7 6 6 6 6 4 10 12 14 15 15 15 8 8 8 8 7 7 7 7 7 7 7
10 9 8 7 7 7 7 7 7 8 6 6 6 6 6 6 6 6 6 7 7 7 7 6 5 7 11 13 14 14 10 7 8 7 7 8 7 7 6 6 6 7
10 10 9 8 8 8 7 7 7 7 7 6 7 6 7 6 5 5 5 6 8 7 7 7 5 7 11 12 15 14 10 8 7 7 7 7 6 5 6 5 7 12
10 10 10 9 8 7 7 8 7 8 6 6 6 5 5 5 5 5 5 5 5 7 8 8 7 7 10 12 15 13 9 6 7 7 8 7 7 6 4 5 5 7
9 10 10 10 9 7 8 8 7 7 7 7 6 6 5 5 5 5 7 6 5 6 7 7 8 7 8 10 10 12 11 8 7 8 8 7 7 8 7 4 4 5
Wind_Direction
163 172 174 181 183 165 150 157 168 170 184 192 198 203 201 201 187 192 184 178 180 179 187 183 163 160 162 162 151 141 135 135 132 119 108 111 104 104 105 104 100 114
170 173 174 172 161 149 158 164 168 176 184 194 204 205 195 181 194 189 186 181 178 179 181 180 175 168 165 156 154 140 135 131 120 111 111 104 105 101 111 118 119 127
169 176 172 173 168 165 161 167 171 181 183 195 202 204 199 189 183 187 190 185 179 177 177 174 170 167 158 152 149 139 136 129 116 115 110 114 109 107 122 127 127 138
173 175 178 170 160 159 159 163 178 181 184 199 203 203 196 188 180 182 187 185 177 176 171 166 163 156 151 147 138 132 134 119 121 118 110 104 112 117 129 131 136 133
173 175 171 159 157 157 161 171 176 185 183 196 200 192 191 185 183 185 186 182 176 171 164 160 155 150 145 140 137 130 126 116 114 116 118 122 128 124 141 134 145 145
174 167 159 153 156 158 168 178 182 183 183 186 194 187 194 189 189 188 185 175 166 163 161 156 155 148 143 139 134 132 130 124 122 120 124 131 128 129 141 142 128 118
166 155 153 151 154 167 171 180 184 181 182 187 178 193 192 192 192 189 180 169 165 165 159 153 151 146 145 139 132 130 128 127 126 126 130 132 133 147 133 130 122 115
158 150 149 152 158 172 174 178 180 178 171 167 188 197 196 195 187 175 140 114 78 59 50 36 62 136 146 139 134 132 131 130 132 132 133 140 143 143 140 138 133 122
149 152 152 159 164 170 174 174 168 160 162 177 190 198 204 199 182 152 136 148 139 133 149 158 146 134 102 120 140 139 138 135 137 136 137 140 141 146 148 144 128 124
154 154 158 165 170 169 167 162 153 158 168 177 191 196 197 191 132 135 137 148 138 133 147 163 153 152 168 174 151 143 135 135 139 138 136 138 141 142 142 130 123 100
157 159 165 173 171 163 160 151 151 156 167 178 184 194 181 138 115 123 135 147 150 155 157 157 171 173 157 151 145 133 130 135 144 142 139 134 123 124 121 116 107 113
162 165 171 176 166 162 162 157 153 159 164 172 180 173 159 145 135 149 159 168 167 166 156 159 162 164 156 150 145 134 136 141 136 127 117 110 112 110 115 116 122 123
167 171 171 167 162 163 163 158 155 158 166 171 167 163 144 146 160 146 81 79 96 131 154 153 155 137 131 132 137 139 139 133 121 110 109 107 107 111 107 109 113 117
170 170 161 155 156 160 166 166 155 156 167 159 154 155 142 141 161 127 123 137 137 135 132 155 145 130 129 130 143 143 136 124 119 117 112 104 98 94 98 101 104 102
165 163 149 148 156 160 163 165 160 154 158 157 153 148 156 146 125 140 141 137 130 131 142 162 149 127 130 137 150 152 133 124 124 123 120 115 106 97 94 99 96 100
159 153 149 150 158 163 163 162 156 151 155 150 150 156 160 155 138 131 147 145 148 152 157 158 154 139 151 171 175 154 135 128 126 127 126 126 122 114 100 99 104 103
152 152 150 159 165 159 158 157 154 148 145 144 148 154 162 158 137 131 150 159 157 158 161 169 157 162 154 173 163 151 137 136 134 133 130 130 131 130 128 121 101 92
150 148 153 160 161 159 157 160 154 149 146 151 152 158 156 149 151 140 145 160 158 161 170 171 164 156 160 169 160 151 142 140 138 137 137 136 136 133 133 129 128 120
148 148 155 158 159 153 153 154 156 152 148 153 163 161 150 162 163 148 156 157 156 164 168 168 168 162 164 166 164 153 144 140 141 140 140 142 141 140 139 140 143 137
150 151 156 156 148 147 150 155 158 160 153 153 150 152 160 163 166 165 161 162 167 164 161 166 160 171 169 169 168 154 145 139 143 145 145 148 150 148 147 152 155 151
151 153 155 155 151 149 153 157 158 150 148 148 153 161 167 171 168 168 168 165 162 164 166 166 168 165 174 173 168 156 149 140 145 145 146 150 152 153 157 160 161 160
155 156 155 155 151 151 155 154 151 150 150 145 144 153 159 156 166 164 162 164 160 156 151 169 167 176 174 174 165 160 150 139 144 148 151 150 153 159 162 156 159 159
159 156 154 154 152 152 154 149 145 143 144 142 142 158 166 171 175 168 161 160 160 165 168 167 167 188 179 171 164 160 151 142 142 147 152 153 159 164 155 153 162 164
158 154 155 157 156 157 151 145 141 138 148 155 155 161 173 174 158 145 146 161 163 169 174 165 175 181 182 178 162 167 156 154 145 137 147 149 145 141 144 158 168 162
157 155 154 155 155 152 147 144 145 144 147 151 155 156 163 153 148 148 147 155 168 164 167 166 167 178 186 187 167 161 147 144 137 125 128 138 135 126 122 146 147 149
157 155 153 154 150 144 148 146 139 135 149 155 153 154 148 151 149 150 160 166 164 164 167 170 163 168 185 194 181 150 143 138 139 133 136 136 134 135 128 103 123 127